Погода в Крымской Слудке

Россия / Удмуртская Республика     55°59′52″N   51°25′34″E
темп.,
°C
ветер,
м/с
пор.,
м/с
влажн.,
%
обл.,
%
осадки,
мм/ч
давл.,
гПа
погр.,
м
8 марта, пн
пн801:00−9ю61394100 0.3 1001627
04:00−8ю71393100 1.0 997752
07:00−7ююв51195100 0.3 993521
10:00−3юз91388100 1.4 9921034
13:00−4з91479100 0.6 9941155
16:00−4зюз6108460 0.6 9971023
19:00−8юз4119181 0.1 1000352
22:00−12юз229356 0.1 100021
9 марта, вт
вт901:00−12сз1292100 0.0 99921
04:00−14з2395100 0.0 100231
07:00−15з379514 0.0 1005157
10:00−12з369321 0.0 1008274
13:00−10зюз349198 0.0 1009388
16:00−9зюз349099 0.1 1009425
19:00−14зсз2295100 0.0 100921
22:00−15з129884 0.1 101021
10 марта, ср
ср1001:00−14ссз359780 0.1 1009125
04:00−15ссз499489 0.3 1009315
07:00−16с51093100 0.1 1010465
10:00−17с61092100 0.3 1012447
13:00−17ссз6987100 0.0 1013505
16:00−16ссз598297 0.1 1014703
19:00−19ссз4119081 0.0 1016425
22:00−22ссз4119273 0.0 1017319
11 марта, чт
чт1101:00−24сз38971 0.0 1018166
04:00−26сз36983 0.0 1019116
07:00−26зсз37970 0.0 1019143
10:00−19зсз489249 0.0 1019398
13:00−15зсз4791100 0.0 1018422
16:00−12зсз5991100 0.2 1018593
19:00−12з41193100 0.1 1018492
22:00−9сз51287100 0.1 1019640
12 марта, пт
пт1201:00−12сз4118896 0.0 1021375
04:00−16сз4119274 0.0 1022257
07:00−18сз49940 0.0 1025203
10:00−14сз47880 0.0 1027284
13:00−10зсз47810 0.0 1027365
16:00−9з48820 0.0 1028473
19:00−13зюз37920 0.0 1028116
22:00−15зюз38910 0.0 1029150